Land O' Lakes, WI

10:49 PM CST on November 19, 2017 (GMT -0600)
Kings Land O'Lakes

Weather History for KLNL - May, 2013

Change the Weather History Date:

Saturday, May 25, 2013

  Actual Average (KEGV) Record (KEGV)
Temperature  
Mean Temperature 50 °F -  
Max Temperature 68 °F 63 °F 81 °F (2014)
Min Temperature 33 °F 43 °F 32 °F (2003)
Degree Days  
Heating Degree Days 15    
Moisture  
Dew Point 34 °F    
Average Humidity 62    
Maximum Humidity 98    
Minimum Humidity 26    
Precipitation  
Precipitation 0.00 in - - ()
Sea Level Pressure  
Sea Level Pressure 30.34 in    
Wind  
Wind Speed 3 mph (SE)    
Max Wind Speed 10 mph    
Max Gust Speed -    
Visibility 10 miles    
Events      
Averages and records for this station are not official NWS values.
T = Trace of Precipitation, MM = Missing Value Source: NWS Daily Summary

Daily Weather History Graph

Daily Weather History Graph

Search for Another Location

Airport or City:

Trip Planner

Search our weather history database for the weather conditions in past years. The results will help you decide how hot, cold, wet, or windy it might be!

Date:

Astronomy

May. 25, 2013 Rise Set
Actual Time 5:13 AM CDT 8:34 PM CDT
Civil Twilight 4:37 AM CDT 9:11 PM CDT
Nautical Twilight 3:49 AM CDT 9:59 PM CDT
Astronomical Twilight 2:48 AM CDT 11:00 PM CDT
Moon 9:21 PM CDT (5/25) 5:41 AM CDT (5/25)
Length of Visible Light 16h 34m
Length of Day
15h 20m
Full, 100% of the Moon is Illuminated
May 25
Full
May 31
Last Quarter
Jun 8
New
Jun 16
First Quarter
Jun 23
Full

Hourly Weather History & Observations

Time (CDT) Temp. Windchill Dew Point Humidity Pressure Visibility Wind Dir Wind Speed Gust Speed Precip Events Conditions
12:15 AM 46.2 °F 43.3 °F 34.3 °F 63% 30.34 in 10.0 mi ESE 5.8 mph - N/A   Clear
12:35 AM 45.3 °F 42.3 °F 34.7 °F 66% 30.34 in 10.0 mi ESE 5.8 mph - N/A   Clear
12:55 AM 44.6 °F 43.1 °F 34.7 °F 68% 30.34 in 10.0 mi SE 3.5 mph - N/A   Clear
1:15 AM 43.9 °F 42.3 °F 34.7 °F 70% 30.33 in 10.0 mi SE 3.5 mph - N/A   Clear
1:35 AM 43.2 °F - 34.7 °F 72% 30.34 in 10.0 mi Calm Calm - N/A   Clear
1:55 AM 39.6 °F - 35.6 °F 86% 30.34 in 10.0 mi Calm Calm - N/A   Clear
2:15 AM 37.6 °F - 34.9 °F 90% 30.33 in 10.0 mi Calm Calm - N/A   Clear
2:35 AM 37.6 °F - 34.7 °F 89% 30.34 in 10.0 mi Calm Calm - N/A   Clear
2:55 AM 37.8 °F - 35.6 °F 92% 30.33 in 10.0 mi Calm Calm - N/A   Clear
3:15 AM 36.9 °F - 35.2 °F 94% 30.33 in 10.0 mi Calm Calm - N/A   Clear
3:35 AM 36.9 °F - 34.5 °F 91% 30.33 in 10.0 mi Calm Calm - N/A   Clear
3:55 AM 37.2 °F - 34.9 °F 91% 30.34 in 10.0 mi Calm Calm - N/A   Clear
4:15 AM 36.3 °F - 34.9 °F 95% 30.34 in 10.0 mi Calm Calm - N/A   Clear
4:35 AM 35.1 °F - 33.4 °F 94% 30.34 in 10.0 mi Calm Calm - N/A   Clear
4:55 AM 34.7 °F - 33.8 °F 97% 30.35 in 10.0 mi Calm Calm - N/A   Clear
5:15 AM 33.4 °F - 32.7 °F 97% 30.35 in 10.0 mi Calm Calm - N/A   Clear
5:35 AM 33.3 °F - 32.7 °F 98% 30.36 in 10.0 mi Calm Calm - N/A   Clear
5:55 AM 34.5 °F - 34.0 °F 98% 30.36 in 10.0 mi Calm Calm - N/A   Clear
6:15 AM 38.3 °F - 37.0 °F 95% 30.37 in 10.0 mi Calm Calm - N/A   Clear
6:35 AM 41.5 °F - 37.8 °F 86% 30.39 in 10.0 mi Calm Calm - N/A   Clear
6:55 AM 44.6 °F - 38.1 °F 78% 30.40 in 10.0 mi Calm Calm - N/A   Clear
7:15 AM 46.4 °F 45.2 °F 36.7 °F 69% 30.40 in 10.0 mi South 3.5 mph - N/A   Clear
7:35 AM 48.2 °F - 34.9 °F 60% 30.41 in 10.0 mi SSE 6.9 mph - N/A   Clear
7:55 AM 50.0 °F - 34.9 °F 56% 30.40 in 10.0 mi SE 5.8 mph - N/A   Clear
8:15 AM 51.1 °F - 34.0 °F 52% 30.40 in 10.0 mi SE 9.2 mph - N/A   Clear
8:55 AM 54.0 °F - 34.2 °F 47% 30.38 in 10.0 mi South 5.8 mph - N/A   Clear
9:15 AM 55.2 °F - 34.5 °F 46% 30.38 in 10.0 mi SSE 8.1 mph - N/A   Clear
9:55 AM 57.2 °F - 34.7 °F 43% 30.37 in 10.0 mi SE 6.9 mph - N/A   Clear
10:15 AM 58.3 °F - 35.4 °F 42% 30.37 in 10.0 mi SE 5.8 mph - N/A   Clear
10:35 AM 59.2 °F - 34.7 °F 40% 30.37 in 10.0 mi SE 5.8 mph - N/A   Clear
10:55 AM 60.6 °F - 34.5 °F 38% 30.36 in 10.0 mi South 10.4 mph - N/A   Clear
11:55 AM 63.3 °F - 33.1 °F 32% 30.36 in 10.0 mi South 5.8 mph - N/A   Clear
12:55 PM 64.0 °F - 32.2 °F 30% 30.35 in 10.0 mi SSE 8.1 mph - N/A   Mostly Cloudy
1:35 PM 65.1 °F - 31.8 °F 29% 30.34 in 10.0 mi South 4.6 mph - N/A   Scattered Clouds
1:55 PM 65.1 °F - 31.6 °F 29% 30.34 in 10.0 mi ESE 6.9 mph - N/A   Scattered Clouds
2:55 PM 67.8 °F - 31.8 °F 26% 30.33 in 10.0 mi ESE 5.8 mph - N/A   Overcast
3:15 PM 66.7 °F - 30.9 °F 26% 30.32 in 10.0 mi ENE 5.8 mph - N/A   Mostly Cloudy
3:35 PM 67.6 °F - 31.3 °F 26% 30.32 in 10.0 mi SSE 4.6 mph - N/A   Scattered Clouds
4:15 PM 65.5 °F - 31.3 °F 28% 30.32 in 10.0 mi Calm Calm - N/A   Clear
6:55 PM 65.3 °F - 31.8 °F 29% 30.28 in 10.0 mi SE 3.5 mph - N/A   Scattered Clouds
7:35 PM 64.9 °F - 33.1 °F 31% 30.28 in 10.0 mi SE 4.6 mph - N/A   Mostly Cloudy
8:35 PM 57.2 °F - 41.4 °F 55% 30.28 in 10.0 mi Calm Calm - N/A   Scattered Clouds
9:35 PM 55.9 °F - 32.0 °F 40% 30.31 in 10.0 mi East 6.9 mph - N/A   Clear
9:55 PM 54.3 °F - 33.1 °F 45% 30.32 in 10.0 mi East 5.8 mph - N/A   Clear
10:15 PM 52.9 °F - 34.7 °F 50% 30.32 in 10.0 mi ESE 4.6 mph - N/A   Clear
10:35 PM 51.8 °F - 35.6 °F 54% 30.32 in 10.0 mi SE 4.6 mph - N/A   Clear
10:55 PM 51.3 °F - 35.6 °F 55% 30.33 in 10.0 mi SE 3.5 mph - N/A   Clear
11:15 PM 49.5 °F - 36.0 °F 60% 30.33 in 10.0 mi SE 3.5 mph - N/A   Clear
11:35 PM 47.5 °F - 35.8 °F 64% 30.33 in 10.0 mi Calm Calm - N/A   Clear
11:55 PM 44.4 °F - 38.8 °F 81% 30.34 in 10.0 mi Calm Calm - N/A   Clear